Regional Weather Roundup
Issued by NWS

Home | Current Version | Previous Version | Text Only | Print | Product List | Glossary On
Versions: 1 2 3 4 5 6 7 8 9 10 11 12 13 14 15 16 17 18 19 20 21 22 23 24 25 26 27 28 29 30 31 32 33 34 35 36 37 38 39 40 41 42 43 44 45 46 47 48 49 50
047
ASUS43 KMKX 132120
RWRWI

WISCONSIN REGIONAL WEATHER ROUNDUP
NATIONAL WEATHER SERVICE MILWAUKEE/SULLIVAN WI
300 PM CST SAT FEB 13 2016

NOTE: "FAIR" INDICATES FEW OR NO CLOUDS BELOW 12,000 FEET WITH NO
SIGNIFICANT WEATHER AND/OR OBSTRUCTIONS TO VISIBILITY.

WIZ001-002-006>008-014>016-023>028-132200-
NORTHWEST WISCONSIN

CITY           SKY/WX    TMP DP  RH WIND       PRES   REMARKS
SUPERIOR ARPT  SUNNY     10 -12  36 SW5       30.49F WCI   2
ASHLAND        SUNNY      9 -12  38 SW6       30.47F WCI  -1
HAYWARD        SUNNY      7 -15  36 S7        30.44F WCI  -5
SIREN          SUNNY      8 -15  34 CALM      30.48F
CUMBERLAND     SUNNY      5 -13  43 S7        30.45F WCI  -7
RICE LAKE      SUNNY      7 -13  40 CALM      30.49F
CHETEK         SUNNY      7 -12  41 NE3       30.49F
LADYSMITH      SUNNY      9 -14  34 CALM      30.47F
EAU CLAIRE     SUNNY      6 -11  45 CALM      30.51F
MENOMONIE      SUNNY     16 -10  30 SE5       30.52F WCI   9
NEW RICHMOND   SUNNY      8 -10  45 SE6       30.49F WCI  -3
OSCEOLA        SUNNY     10 -10  40 SE6       30.52F WCI   0
$$

WIZ003>005-009-010-017-018-132200-
NORTH CENTRAL WISCONSIN

CITY           SKY/WX    TMP DP  RH WIND       PRES   REMARKS
MANITOWISH WTR SUNNY      7  -8  51 W9        30.38F WCI  -7
ARBOR VITAE    SUNNY      9  -6  49 W6        30.38F WCI  -1
WOODRUFF       SUNNY      9  -6  49 W6        30.38F WCI  -1
RHINELANDER    SUNNY      9  -6  50 W9        30.39F WCI  -4
EAGLE RIVER    SUNNY      9  -7  49 NW9       30.37S WCI  -4
LAND O LAKES   PTSUNNY   10  -3  54 NW6       30.37F WCI   1
PHILLIPS       SUNNY      9 -11  41 W3        30.41F
TOMAHAWK       SUNNY     10 -11  39 W8        30.41F WCI  -3
MEDFORD        SUNNY      7 -11  42 W7        30.42F WCI  -4
MERRILL        SUNNY     11  -8  40 W6        30.43F WCI   2
$$

WIZ029-030-035-036-043>047-132200-
CENTRAL WISCONSIN

CITY           SKY/WX    TMP DP  RH WIND       PRES   REMARKS
WAUSAU         SUNNY      7  -8  50 W9        30.44F WCI  -7
MOSINEE        SUNNY      7  -8  51 W6        30.47F WCI  -3
MARSHFIELD     SUNNY      7 -11  43 NW8       30.45F WCI  -6
STEVENS POINT  SUNNY      6 -10  48 W6        30.48S WCI  -5
WAUPACA        SUNNY     14  -7  38 W10       30.50S WCI   1
WAUTOMA        SUNNY     12  -9  38 W9        30.51F WCI   0
WISC RAPIDS    SUNNY     10 -12  36 NW7       30.50F WCI  -1
CAMP DOUGLAS   MOSUNNY   10  -9  40 SW2       30.50F
$$

WIZ011>013-019>022-031-037>040-048>050-132200-
NORTHEAST WISCONSIN

CITY           SKY/WX    TMP DP  RH WIND       PRES   REMARKS
ANTIGO         SUNNY      9  -6  48 W9        30.39F WCI  -4
SHAWANO        SUNNY     15  -6  37 W6        30.47F WCI   7
OCONTO         SUNNY     13  -6  42 W6        30.48R WCI   4
STURGEON BAY   SUNNY     10  -6  48 W7        30.49S WCI   0
GREEN BAY      SUNNY     10  -6  48 SW7       30.50S WCI  -1
MANITOWOC      SUNNY     11  -5  48 W9        30.51S WCI  -2
APPLETON       MOSUNNY   10  -9  40 SW10      30.47S WCI  -3
CLINTONVILLE   SUNNY     12  -9  37 W10       30.48S WCI  -1
OSHKOSH        SUNNY     10  -6  48 W5        30.50F WCI   2
$$

WIZ032>034-041-042-053>061-132200-
SOUTHWEST WISCONSIN

CITY           SKY/WX    TMP DP  RH WIND       PRES   REMARKS
LA CROSSE      SUNNY     10 -10  40 CALM      30.53F
SPARTA         SUNNY     11 -10  38 CALM      30.52F
VIROQUA        SUNNY     13  -9  37 CALM      30.46F
BOSCOBEL       SUNNY     15 -11  30 CALM      30.54F
PRAIRIE DU CHI SUNNY     12 -11  34 CALM      30.54F
PLATTEVILLE    SUNNY     10  -7  46 CALM      30.52F
$$

WIZ056-057-062-063-064-067-068-132200-
SOUTH CENTRAL WISCONSIN

CITY           SKY/WX    TMP DP  RH WIND       PRES   REMARKS
REEDSBURG      SUNNY     10  -9  43 CALM      30.51F
BARABOO/DELLS  SUNNY     10 -12  37 W7        30.50F WCI  -1
LONE ROCK      SUNNY     11  -9  40 SW5       30.53F WCI   3
MINERAL POINT  SUNNY     10  -8  44 SW6       30.49F WCI   1
MADISON        MOSUNNY   10  -8  44 VRB6      30.52F WCI   0
MIDDLETON      SUNNY     13  -9  37 NW6       30.51F WCI   4
WATERTOWN      SUNNY      9  -6  50 W6        30.51F WCI  -1
MONROE         SUNNY     14  -6  41 N5        30.50F WCI   6
JANESVILLE     SUNNY     14  -6  41 NW6       30.53F WCI   5
$$

WIZ051-052-058>065-066-070>072-132200-
SOUTHEAST WISCONSIN

CITY           SKY/WX    TMP DP  RH WIND       PRES   REMARKS
MILWAUKEE      MOSUNNY   12  -9  38 NW12      30.52F WCI  -2
WAUKESHA       SUNNY      9  -8  47 W13       30.51F WCI  -7
MILWAUKEE/TIMM SUNNY     10  -9  40 NW12G17   30.52F WCI  -4
RACINE         SUNNY     13  -9  37 NW10      30.53F WCI   0
BURLINGTON     SUNNY     12  -7  42 NW8       30.52F WCI   0
KENOSHA        SUNNY     14  -4  44 NW8       30.51F WCI   3
FOND DU LAC    SUNNY      9  -7  48 W8        30.51F WCI  -3
SHEBOYGAN      SUNNY      9  -5  53 W10       30.51S WCI  -5
WEST BEND      SUNNY     10  -8  44 W10G16    30.50S WCI  -3
JUNEAU         SUNNY      8  -8  48 W8        30.51F WCI  -4
$$

LSZ147-162-132200-
LAKE SUPERIOR

STATION/POSITION TIME  TEMP    WIND        PRES    WAVE
                       AIR SEA DIR/SP/G            HT/PER
                 (UTC) (F)     (DEG/KT/KT) (MB)    (FT/S)
DEVILS ISLAND    2100    6     250/  6/  7 1034.3F
SAXON HARBOR     2040   11                 1032.5F
$$

LMZ867-665-643>646-132200-
LAKE MICHIGAN

STATION/POSITION TIME  TEMP    WIND        PRES    WAVE
                       AIR SEA DIR/SP/G            HT/PER
                 (UTC) (F)     (DEG/KT/KT) (MB)    (FT/S)
CHAMBERS ISLAND  2000   15     310/  7/ 10 1031.5F
SISTER BAY       2049   18     340/  9/ 11   N/A
ALGOMA LAKESHORE 1941          330/  7/ 12   N/A
KEWAUNEE LAKESHO 2000    9     300/  6/ 11 1031.5F
SHEBOYGAN LAKESH 2100    9     270/ 11/ 13 1035.2R
PORT WASHINGTON  2000   11     280/  8/ 12 1034.5F
MILWAUKEE LAKESH 2010   11     320/  7/  9   N/A
KENOSHA   LAKESH 2100   12     340/ 11/ 13 1033.5F
$$

TC  - TEMPERATURE IN CELSIUS
VSB - VISIBILITY IN STATUTE MILES
WCI - WIND CHILL INDEX
HX  - HEAT INDEX





USA.gov is the U.S. government's official web portal to all federal, state and local government web resources and services.